Home > Weather > Portsmouth > Past weeks

Flag for United Kingdom Weather for the Past 2 Weeks in Portsmouth, England, United Kingdom

Now
46 °F

Passing clouds.


Feels Like: 44 °F
Forecast: 38 / 52 °F
Wind: 6 mph from Northwest

Location: Southampton / Weather Centre

Current Time: Apr 29, 2016 at 9:01:54 PM

Latest Report: Apr 29, 2016 at 8:20 PM


Visibility: N/A

Pressure: 29.92 "Hg

Humidity: 53%

Dew Point: 30 °F

Location of PortsmouthLocation

Historic Weather in Portsmouth — Graph

°F

Portsmouth Temperature Yesterday

Maximum temperature yesterday: 50 °F (at 3:20 PM)
Minimum temperature yesterday: 27 °F (at 5:50 AM)
Average temperature yesterday: 45 °F

High & Low Weather Summary for the Past Weeks

 TemperatureHumidityPressure
High64 °F (Apr 21, 3:20 PM)100% (Apr 15, 5:50 AM)30.42 "Hg (Apr 15, 5:50 AM)
Low27 °F (Apr 28, 5:50 AM)37% (Apr 27, 2:50 PM)29.42 "Hg (Apr 15, 4:50 PM)
Average47 °F65%29.99 "Hg
* Reported Apr 14 7:20 PM — Apr 29 7:50 PM, Portsmouth, Weather by CustomWeather, © 2016

Note: Actual official high and low records may vary slightly from our data, if they occured in-between our weather recording intervals... More about our weather records

Advertising

Portsmouth Weather History for the Previous 24 Hours

Scroll right to see more
 ConditionsComfort  
Time TempWeatherWind HumidityBarometerVisibility
7:50 PM
Fri, Apr 29
46 °FPassing clouds.8 mph53%29.92 "HgN/A
7:20 PM48 °FPassing clouds.10 mph50%29.92 "HgN/A
6:50 PM50 °FPassing clouds.12 mph47%29.89 "HgN/A
6:20 PM50 °FPassing clouds.12 mph47%29.89 "HgN/A
5:50 PM50 °FScattered showers. Scattered clouds.12 mph50%29.89 "HgN/A
5:20 PM52 °FScattered showers. Passing clouds.13 mph50%29.86 "HgN/A
4:50 PM50 °FScattered showers. Scattered clouds.12 mph54%29.86 "HgN/A
4:20 PM48 °FScattered showers. Scattered clouds.10 mph58%29.89 "HgN/A
3:50 PM48 °FScattered showers. Scattered clouds.12 mph58%29.89 "HgN/A
3:20 PM48 °FScattered showers. Scattered clouds.13 mph62%29.89 "HgN/A
2:50 PM46 °FScattered showers. Scattered clouds.5 mph71%29.86 "HgN/A
2:20 PM46 °FScattered showers. Scattered clouds.15 mph62%29.89 "HgN/A
1:50 PM48 °FScattered showers. Scattered clouds.10 mph50%29.86 "HgN/A
1:20 PM43 °FScattered showers. Scattered clouds.17 mph76%29.86 "HgN/A
12:50 PM50 °FScattered showers. Scattered clouds.17 mph47%29.83 "HgN/A
12:20 PM48 °FScattered showers. Scattered clouds.17 mph46%29.86 "HgN/A
11:50 AM48 °FScattered showers. Scattered clouds.18 mph50%29.86 "HgN/A
11:20 AM48 °FScattered showers. Scattered clouds.14 mph50%29.86 "HgN/A
10:50 AM46 °FScattered showers. Scattered clouds.18 mph53%29.86 "HgN/A
10:20 AM46 °FPassing clouds.13 mph53%29.86 "HgN/A
9:50 AM46 °FPassing clouds.14 mph53%29.86 "HgN/A
9:20 AM46 °FPassing clouds.14 mph57%29.86 "HgN/A
8:50 AM45 °FPassing clouds.13 mph61%29.86 "HgN/A
8:20 AM43 °FPassing clouds.9 mph66%29.86 "HgN/A
7:20 AM41 °FPassing clouds.9 mph66%29.86 "HgN/A
6:50 AM39 °FPassing clouds.8 mph70%29.86 "HgN/A
6:20 AM39 °FPassing clouds.8 mph70%29.83 "HgN/A
5:50 AM39 °FPassing clouds.7 mph75%29.83 "HgN/A
9:50 PM
Thu, Apr 28
46 °FSprinkles. Passing clouds.16 mph82%29.86 "HgN/A
9:20 PM46 °FScattered showers. Scattered clouds.16 mph76%29.86 "HgN/A
Weather by CustomWeather, © 2016

See weather overviewHow to use our weather pages